Flag for U.S.A. Weather past 2 weeks in Sunrise Manor, Nevada, U.S.A.

Now
94 °F

Sunny.


Feels Like: 91 °F
Forecast: 78 / 98 °F
Wind: 6 mph from Southeast

Location: Nellis Air Force Base

Current Time: Jul 7, 2015 at 9:40:15 PM

Latest Report: Jul 7, 2015 at 8:58 PM


Visibility: 10 mi

Pressure: 29.65 "Hg (27.88 "Hg at 555m altitude)

Humidity: 23%

Dew point: 51 °F

Location of Sunrise ManorLocation

Historic Weather in Sunrise Manor — Graph

°F

Sunrise Manor temperature yesterday

Maximum temperature yesterday: 99 °F (at 4:58 PM)
Minimum temperature yesterday: 82 °F (at 10:58 PM)
Average temperature yesterday: 88 °F

Past Weeks' High & Low Weather Summary

 TemperatureHumidityPressure
High111 °F (Jun 26, 3:58 PM)57% (Jul 7, 4:58 AM)29.92 "Hg (Jul 7, 4:58 AM)
Low75 °F (Jun 24, 4:58 AM)4% (Jun 22, 7:58 PM)29.59 "Hg (Jul 3, 6:58 PM)
Average96 °F19%29.75 "Hg
* Reported Jun 22 7:58 PM — Jul 7 7:58 PM, Sunrise Manor, Weather by CustomWeather, © 2015

Note: Actual official high and low records may vary slightly from our data, if they occured in-between our weather recording intervals... More about our weather records

Advertising

Sunrise Manor weather history for previous 24 hours

 ConditionsComfort  
Time TempWeatherWind HumidityBarometerVisibility
7:58 PM
Tue, Jul 7
96 °FPassing clouds.5 mph22%29.64 "Hg10 mi
6:58 PM97 °FSunny.16 mph20%29.65 "Hg10 mi
5:58 PM99 °FSunny.5 mph19%29.65 "Hg10 mi
4:58 PM99 °FSunny.10 mph18%29.67 "Hg10 mi
3:58 PM99 °FSunny.6 mph19%29.69 "Hg10 mi
2:58 PM98 °FSunny.2 mph21%29.72 "Hg10 mi
1:58 PM97 °FSunny.3 mph22%29.75 "Hg10 mi
12:58 PM96 °FSunny.3 mph23%29.79 "Hg10 mi
11:58 AM94 °FSunny.6 mph25%29.83 "Hg10 mi
10:58 AM92 °FSunny.8 mph28%29.85 "Hg10 mi
9:58 AM89 °FSunny.8 mph32%29.87 "Hg10 mi
8:58 AM86 °FSunny.8 mph38%29.89 "Hg10 mi
7:58 AM83 °FPassing clouds.9 mph44%29.89 "Hg10 mi
6:58 AM81 °FPassing clouds.5 mph51%29.88 "Hg10 mi
5:58 AM80 °FPassing clouds.No wind54%29.85 "Hg10 mi
4:58 AM80 °FPartly cloudy.No wind57%29.84 "Hg10 mi
3:58 AM82 °FPassing clouds.8 mph49%29.83 "Hg10 mi
2:58 AM83 °FPassing clouds.6 mph44%29.82 "Hg10 mi
1:58 AM83 °FPassing clouds.2 mph46%29.85 "Hg10 mi
12:58 AM83 °FPassing clouds.No wind45%29.85 "Hg10 mi
11:58 PM
Mon, Jul 6
82 °FPassing clouds.6 mph48%29.86 "Hg10 mi
10:58 PM82 °FClear.3 mph52%29.87 "Hg10 mi
9:58 PM82 °FClear.3 mph52%29.87 "Hg10 mi
Weather by CustomWeather, © 2015

See weather overviewHow to use our weather pages